(3) Juno
ephemeris date magn radius delta ra dec elong phase
Opposition7 Sep 20227.72.321 AU1.314 AU23h00m-04°03'177.9°0.9°
Today27 Sep 20228.22.270 AU1.314 AU22h47m-07°54'156.6°10.1°
(3) Juno - 2022-09-27
astro.vanbuitenen.nl


 
-1 year
-1 month
-1 day
Now
+1 day
+1 month
+1 year

The interactive orbit chart above shows the body's path through the solar system and its position at the given date. Green and blue lines are shown perpendicular to the ecliptic plane: Green if the path is above the ecliptic plane, blue if it is below. (Left-click and drag to rotate the view; Right-click and drag to move the view; Use scroll wheel to zoom in our out.)

The orbital elements of Juno are:

            e (Eccentricity)                : 0.2567750
            a (Semimajor axis)              : 2.6704222
            i (Inclination)                 : 12.99223
            Ω (Longitude of ascending node) : 169.84591
            ω (Argument of perihelion)      : 247.80396
            M (Mean anomaly)                : 306.62243
            Epoch                           : 2022 Aug 09

            L (Longitude of perihelion)     : 237.12533
            B (Latitude of perihelion)      : -12.01449
            P (Orbital period in years)     : 4.36            
        

The light curve chart below shows the estimated development of the minor planet's magnitude.


The all-sky chart below shows the path of the minor planet over the same period as the light curve. The current position is marked yellow.





The following chart shows the path of the minor planet in the next few days. The field of view is optimized for (~10x50) binoculars and finderscopes. A more printer-friendly version of the same chart can be found below.




Ephemerides:
Date       Time       RA (2000)    DEC (2000)    delta   radius  elong  phase   PA    magn
2022-09-27 00:00 UT   22 47 12.0   -07 54 18     1.314    2.270  156.6   10.1    67    8.2 
2022-09-27 02:30 UT   22 47 08.4   -07 55 26     1.315    2.270  156.5   10.1    67    8.2 
2022-09-28 00:00 UT   22 46 38.2   -08 05 16     1.317    2.267  155.5   10.6    67    8.2 
2022-09-29 00:00 UT   22 46 05.5   -08 16 04     1.320    2.265  154.3   11.1    67    8.2 
2022-09-30 00:00 UT   22 45 34.1   -08 26 42     1.323    2.262  153.1   11.5    67    8.2 
2022-10-01 00:00 UT   22 45 04.0   -08 37 09     1.326    2.260  152.0   12.0    67    8.2 
2022-10-02 00:00 UT   22 44 35.3   -08 47 25     1.330    2.257  150.8   12.5    67    8.3 
2022-10-03 00:00 UT   22 44 08.0   -08 57 30     1.333    2.254  149.6   13.0    66    8.3 
2022-10-04 00:00 UT   22 43 42.2   -09 07 22     1.337    2.252  148.5   13.4    66    8.3 
2022-10-05 00:00 UT   22 43 17.8   -09 17 02     1.342    2.249  147.4   13.9    66    8.3 
2022-10-06 00:00 UT   22 42 54.9   -09 26 29     1.346    2.247  146.2   14.3    66    8.4 
2022-10-07 00:00 UT   22 42 33.6   -09 35 43     1.350    2.244  145.1   14.8    66    8.4 
2022-10-08 00:00 UT   22 42 13.9   -09 44 43     1.355    2.242  144.0   15.2    66    8.4 
2022-10-09 00:00 UT   22 41 55.8   -09 53 30     1.360    2.239  142.9   15.6    66    8.4 
2022-10-10 00:00 UT   22 41 39.3   -10 02 03     1.365    2.237  141.8   16.0    66    8.4 
2022-10-11 00:00 UT   22 41 24.5   -10 10 21     1.371    2.234  140.7   16.5    66    8.5 
2022-10-12 00:00 UT   22 41 11.3   -10 18 25     1.376    2.232  139.6   16.9    66    8.5 
2022-10-13 00:00 UT   22 40 59.9   -10 26 15     1.382    2.229  138.5   17.3    66    8.5 
2022-10-14 00:00 UT   22 40 50.1   -10 33 50     1.388    2.227  137.4   17.7    66    8.5 
2022-10-15 00:00 UT   22 40 42.1   -10 41 10     1.394    2.224  136.3   18.0    66    8.5 
2022-10-16 00:00 UT   22 40 35.9   -10 48 14     1.400    2.222  135.3   18.4    66    8.6 
2022-10-17 00:00 UT   22 40 31.4   -10 55 04     1.406    2.219  134.2   18.8    66    8.6 
2022-10-18 00:00 UT   22 40 28.8